RESOURCESAT-2A

Last updated on Sat Oct 25 2025 00:02:32 GMT+0000 (Coordinated Universal Time)

1 41877U 16074A 25297.71107718 .00000248 00000+0 13335-3 0 9993 2 41877 98.7810 7.8389 0002831 61.6286 298.5177 14.21589443460842
UTC large
Height (km)
Speed (km/s)
/
Latitude / Longitude
Inclination (degrees)
Orbital Period (minutes)
Azimuth
Elevation
Range (km)
Doppler Factor

Next 0 passes for location: London (51.5072 / 0.1276)

Sorry there are no passes over London.